Regional Weather Roundup
Issued by NWS

Home | Current Version | Previous Version | Graphics & Text | Print | Product List | Glossary On
Versions: 1 2 3 4 5 6 7 8 9 10 11 12 13 14 15 16 17 18 19 20 21 22 23 24 25 26 27 28 29 30 31 32 33 34 35 36 37 38 39 40 41 42 43 44 45 46 47 48 49 50
000
ASUS43 KDMX 240803
RWRIA

WEATHER ROUNDUP FOR IOWA
NATIONAL WEATHER SERVICE DES MOINES IA
300 AM CDT SUN JUL 24 2016

NOTE: "FAIR" INDICATES FEW OR NO CLOUDS BELOW 12,000 FEET WITH NO
SIGNIFICANT WEATHER AND/OR OBSTRUCTIONS TO VISIBILITY.

* - THESE STATIONS ARE NOT NWS STATIONS...THUS NOT UNDER NWS
QUALITY CONTROL.  THEY ALSO DO NOT REPORT WEATHER SUCH
AS PRECIPITATION OR FOG.

IAZ001>003-012>014-020>022-031>034-043>046-240900-
   NORTHWEST IOWA

CITY           SKY/WX    TMP DP  RH WIND       PRES   REMARKS
CARROLL *      CLEAR     79  75  89 SW9       29.83R HX  82
CHEROKEE *     MOCLDY    78  77  97 W6        29.84R HX  80
DENISON *      CLEAR     79  75  89 CALM      29.82R HX  82
LE MARS *      CLEAR     79  73  83 N9        29.87R HX  82
SHELDON *      PTCLDY    77  72  83 N13G18    29.85R
SIOUX CITY     CLEAR     81  72  74 N20G28    29.84R HX  85
SPENCER        PTCLDY    78  75  90 W10       29.84R HX  81
STORM LAKE *   CLEAR     77  75  94 W7        29.85R
$$

IAZ055>058-069>071-079>083-090>094-240900-
   SOUTHWEST IOWA

CITY           SKY/WX    TMP DP  RH WIND       PRES   REMARKS
ATLANTIC *     CLEAR     75  73  94 CALM      29.84S
CLARINDA *       N/A     75  73  94 MISG      29.85F
COUNCIL BLFS * CLEAR     77  75  94 CALM      29.85R
CRESTON *      CLEAR     79  75  89 S10       29.86F HX  82
HARLAN  *      CLEAR     75  75 100 CALM      29.87S
LAMONI         CLEAR     78  75  90 S9        29.86S HX  81
RED OAK *      MOCLDY    77  73  88 CALM      29.84S
SHENANDOAH *   CLOUDY    79  73  83 CALM      29.83S HX  82
$$

IAZ047>049-059>061-072>074-084-240900-
   CENTRAL IOWA

CITY           SKY/WX    TMP DP  RH WIND       PRES   REMARKS
AMES           MOCLDY    75  75 100 S3        29.82F
ANKENY *         N/A    N/A N/A N/A MISG        N/A
BOONE *        PTCLDY    77  75  94 SW5       29.83S
CHARITON *       N/A    N/A N/A N/A MISG        N/A
DES MOINES     MOCLDY    81  76  84 S6        29.82F HX  87
GRINNELL*      CLEAR     78  74  89 S7        29.86S HX  80
KNOXVILLE *    CLEAR     79  75  89 S8        29.84R HX  82
MARSHALLTOWN   CLOUDY    80  76  87 S9        29.83S HX  86
NEWTON *       CLEAR     79  77  94 S8        29.84S HX  83
PELLA *        CLOUDY    78  74  87 S5        29.86S HX  81
PERRY *          N/A     75  74  96 CALM      29.83S
$$

IAZ004>006-015-016-023>025-035-036-240900-
   NORTH CENTRAL IOWA

CITY           SKY/WX    TMP DP  RH WIND       PRES   REMARKS
ALGONA *       CLEAR     77  77 100 SW8       29.81S
ESTHERVILLE    MOCLDY    78  76  93 W10       29.82R HX  81
FORT DODGE *   CLEAR     79  73  83 S5        29.83S HX  82
MASON CITY     PTCLDY    76  75  97 SW12      29.82F
FOREST CITY *    N/A     77  77 100 SW6       29.81S
IOWA FALLS *   MOCLDY    77  74  92 S5        29.85S
$$

IAZ007>011-017>019-026>030-037>042-050>054-066-240900-
   NORTHEAST IOWA

CITY           SKY/WX    TMP DP  RH WIND       PRES   REMARKS
CEDAR RAPIDS   CLEAR     79  79 100 S8        29.84F HX  84
CHARLES CITY * MOCLDY    77  77 100 S8        29.82F
CLINTON *      CLOUDY    75  74  96 S8        29.88F
DECORAH *      MOCLDY    73  73 100 S7        29.81F
DUBUQUE        CLEAR     74  72  93 S12       29.87F
MONTICELLO *   CLOUDY    79  77  94 S8        29.85S FOG     HX  83
OELWEIN *      MOCLDY    77  75  94 S8        29.84F
WATERLOO       MOCLDY    78  75  90 S6        29.82S HX  81
$$

IAZ064-065-067-068-078-240900-
   EAST CENTRAL IOWA

CITY           SKY/WX    TMP DP  RH WIND       PRES   REMARKS
DAVENPORT      CLEAR     79  75  87 S10       29.88F HX  83
IOWA CITY      CLEAR     81  78  91 S8        29.86F HX  89
MT. PLEASANT * CLEAR     82  80  96 S8        29.88S HX  93
MUSCATINE *    CLEAR     81  77  89 S7        29.87S HX  88
QUAD CITIES    CLOUDY    80  75  84 S7        29.88  HX  85
$$

IAZ062-063-075>077-085>089-095>099-240900-
   SOUTHEAST IOWA

CITY           SKY/WX    TMP DP  RH WIND       PRES   REMARKS
BURLINGTON     CLEAR     80  77  90 S8        29.89F HX  87
FAIRFIELD *    CLOUDY    81  77  89 S9        29.87R HX  88
KEOKUK *       PTCLDY    82  75  78 S6        29.88S HX  89
CENTERVILLE *    N/A     77  75  94 CALM      29.89S
OTTUMWA        CLEAR     79  75  87 S8        29.86S HX  83
WASHINGTON *   CLEAR     81  79  94 S7        29.88R HX  89
$$

ABBREVIATIONS USED IN REMARKS
   TC - TEMPERATURES IN CELSIUS
  WCI - WIND CHILL INDEX
   HX - HEAT INDEX
  VSB - VISIBILITY
$$





USA.gov is the U.S. government's official web portal to all federal, state and local government web resources and services.